TAM3493 SBFZ-SBTE

Flight info

Callsign TAM3493
Flight time N/A
Altitude 32000
Route PUBOR UZ66 TNA
Aircraft A320/M-SDE3FGHIRWY/LB1

Departure

Time 2026-04-30 22:21
Airport Pinto Martins International Airport (SBFZ)

Arrival

Time N/A
Airport Senador Petrônio Portela Airport (SBTE)
Time Latitude Longitude Altitude Speed Heading
2026-04-30 22:07 -3.77817 -38.53939 86 ft 0 kts 220°
2026-04-30 22:13 -3.77811 -38.53934 94 ft 2 kts 220°
2026-04-30 22:13 -3.77798 -38.53923 85 ft 2 kts 220°
2026-04-30 22:13 -3.77784 -38.53912 83 ft 2 kts 238°
2026-04-30 22:13 -3.77780 -38.53896 86 ft 2 kts 270°
2026-04-30 22:14 -3.77781 -38.53879 84 ft 2 kts 314°
2026-04-30 22:14 -3.77784 -38.53877 85 ft 0 kts 314°
2026-04-30 22:15 -3.77777 -38.53883 84 ft 8 kts 318°
2026-04-30 22:16 -3.77728 -38.53863 85 ft 9 kts 56°
2026-04-30 22:16 -3.77691 -38.53817 84 ft 8 kts 28°
2026-04-30 22:17 -3.77620 -38.53902 86 ft 4 kts 286°
2026-04-30 22:17 -3.77599 -38.53980 82 ft 16 kts 285°
2026-04-30 22:17 -3.77547 -38.54172 86 ft 13 kts 285°
2026-04-30 22:18 -3.77525 -38.54254 83 ft 11 kts 285°
2026-04-30 22:18 -3.77490 -38.54394 84 ft 9 kts 284°
2026-04-30 22:19 -3.77448 -38.54500 83 ft 7 kts 308°
2026-04-30 22:19 -3.77411 -38.54513 84 ft 5 kts
2026-04-30 22:19 -3.77365 -38.54496 85 ft 10 kts 22°
2026-04-30 22:20 -3.77313 -38.54450 85 ft 9 kts 83°
2026-04-30 22:20 -3.77435 -38.53993 85 ft 92 kts 105°
2026-04-30 22:20 -3.77656 -38.53176 86 ft 148 kts 104°
2026-04-30 22:21 -3.77937 -38.52122 547 ft 158 kts 106°
2026-04-30 22:21 -3.78237 -38.51062 1298 ft 157 kts 106°
2026-04-30 22:21 -3.78549 -38.49968 1793 ft 172 kts 107°
2026-04-30 22:21 -3.78921 -38.48747 2094 ft 196 kts 114°
2026-04-30 22:22 -3.79904 -38.47739 2438 ft 223 kts 155°
2026-04-30 22:22 -3.81528 -38.47478 2887 ft 250 kts 178°
2026-04-30 22:22 -3.83305 -38.47638 3671 ft 259 kts 185°
2026-04-30 22:22 -3.85091 -38.47908 4536 ft 263 kts 185°
2026-04-30 22:23 -3.86921 -38.48181 5399 ft 267 kts 184°
2026-04-30 22:23 -3.88777 -38.48420 5847 ft 272 kts 183°
2026-04-30 22:23 -3.90675 -38.48623 5985 ft 273 kts 182°
2026-04-30 22:23 -3.92553 -38.48795 6017 ft 273 kts 181°
2026-04-30 22:24 -3.94451 -38.48976 6017 ft 274 kts 187°
2026-04-30 22:24 -3.96206 -38.49751 6025 ft 282 kts 217°
2026-04-30 22:24 -3.97321 -38.51375 6280 ft 298 kts 251°
2026-04-30 22:24 -3.97758 -38.53412 7149 ft 300 kts 257°
2026-04-30 22:25 -3.98156 -38.55462 7928 ft 304 kts 257°
2026-04-30 22:25 -3.98567 -38.57568 8706 ft 309 kts 258°
2026-04-30 22:25 -3.98981 -38.59686 9464 ft 315 kts 258°
2026-04-30 22:25 -3.99413 -38.61876 10100 ft 325 kts 258°
2026-04-30 22:26 -4.00341 -38.66585 10789 ft 361 kts 258°
2026-04-30 22:26 -4.00832 -38.69086 11482 ft 365 kts 258°
2026-04-30 22:26 -4.01317 -38.71572 12195 ft 368 kts 258°
2026-04-30 22:27 -4.01810 -38.74107 12888 ft 371 kts 258°
2026-04-30 22:27 -4.02304 -38.76658 13567 ft 374 kts 258°
2026-04-30 22:27 -4.03296 -38.81803 14750 ft 381 kts 258°
2026-04-30 22:28 -4.04308 -38.87077 15847 ft 389 kts 258°
2026-04-30 22:28 -4.04823 -38.89755 16406 ft 393 kts 258°
2026-04-30 22:29 -4.06163 -38.97958 18017 ft 404 kts 263°
2026-04-30 22:29 -4.06504 -39.00781 18509 ft 408 kts 263°
2026-04-30 22:30 -4.07916 -39.12235 20316 ft 421 kts 262°
2026-04-30 22:31 -4.09086 -39.21050 21623 ft 430 kts 262°
2026-04-30 22:32 -4.10270 -39.30033 22892 ft 439 kts 262°
2026-04-30 22:32 -4.11070 -39.36136 23662 ft 444 kts 262°
2026-04-30 22:33 -4.12278 -39.45402 24741 ft 449 kts 262°
2026-04-30 22:33 -4.13092 -39.51604 25485 ft 451 kts 262°
2026-04-30 22:34 -4.14332 -39.60997 26559 ft 455 kts 262°
2026-04-30 22:35 -4.15161 -39.67313 27226 ft 458 kts 262°
2026-04-30 22:36 -4.16821 -39.80031 28547 ft 463 kts 262°
2026-04-30 22:36 -4.17269 -39.83193 28852 ft 464 kts 258°
2026-04-30 22:37 -4.19981 -39.92556 29747 ft 468 kts 252°
2026-04-30 22:37 -4.20923 -39.95691 30027 ft 470 kts 252°
2026-04-30 22:37 -4.22803 -40.01970 30531 ft 472 kts 252°
2026-04-30 22:38 -4.24682 -40.08266 31022 ft 474 kts 252°
2026-04-30 22:38 -4.26580 -40.14622 31563 ft 474 kts 252°
2026-04-30 22:39 -4.27519 -40.17750 31851 ft 472 kts 252°
2026-04-30 22:39 -4.30264 -40.26907 31928 ft 444 kts 252°
2026-04-30 22:40 -4.32917 -40.35764 31934 ft 442 kts 252°
2026-04-30 22:41 -4.37342 -40.50506 31944 ft 440 kts 252°
2026-04-30 22:43 -4.42597 -40.68066 31955 ft 439 kts 252°
2026-04-30 22:44 -4.46097 -40.79815 31958 ft 439 kts 252°
2026-04-30 22:45 -4.51338 -40.97363 31953 ft 439 kts 252°
2026-04-30 22:47 -4.56587 -41.14921 31940 ft 439 kts 252°
2026-04-30 22:48 -4.60079 -41.26636 31930 ft 438 kts 252°
2026-04-30 22:49 -4.62689 -41.35379 31634 ft 431 kts 252°
2026-04-30 22:49 -4.65251 -41.43961 30923 ft 425 kts 252°
2026-04-30 22:50 -4.68602 -41.55181 28936 ft 415 kts 252°
2026-04-30 22:51 -4.70231 -41.60676 28005 ft 408 kts 252°
2026-04-30 22:51 -4.71845 -41.66108 27080 ft 403 kts 252°
2026-04-30 22:52 -4.72639 -41.68771 26631 ft 400 kts 252°
2026-04-30 22:52 -4.74223 -41.74085 25727 ft 397 kts 252°
2026-04-30 22:53 -4.75538 -41.78496 24961 ft 395 kts 252°
2026-04-30 22:53 -4.77110 -41.83751 24018 ft 395 kts 252°
2026-04-30 22:53 -4.78163 -41.87274 23326 ft 396 kts 253°
2026-04-30 22:54 -4.79473 -41.91686 22499 ft 394 kts 253°
2026-04-30 22:55 -4.81816 -41.99562 21098 ft 391 kts 253°
2026-04-30 22:55 -4.83353 -42.04738 20187 ft 389 kts 253°
2026-04-30 22:56 -4.84895 -42.09925 19290 ft 388 kts 252°
2026-04-30 22:56 -4.87286 -42.17653 17925 ft 385 kts 245°
2026-04-30 22:57 -4.90123 -42.22097 17069 ft 376 kts 231°
2026-04-30 22:57 -4.93237 -42.26299 16221 ft 372 kts 231°
2026-04-30 22:58 -4.96297 -42.30448 15401 ft 369 kts 231°
2026-04-30 22:59 -5.00844 -42.36611 14177 ft 365 kts 231°
2026-04-30 22:59 -5.05337 -42.42690 12963 ft 353 kts 231°